Wind_Speed
38 37 35 34 32 30 29 29 28 27 26 25 25 25 26 26 26 26 26 27 27 28 28 28 29 29 30 30 31 32 33 33 33 33 33 33 33 34 34 34 35 35 35
40 38 37 35 34 32 31 30 29 28 27 27 27 27 27 27 27 27 28 28 28 29 28 29 29 30 31 32 32 33 33 33 33 33 33 33 33 34 34 34 35 35 36
41 40 38 37 35 34 33 32 31 30 29 29 29 29 28 28 28 29 29 29 29 29 29 30 31 31 32 33 33 33 33 33 33 33 33 33 33 34 34 34 35 35 35
42 41 40 38 37 35 34 33 32 32 31 31 30 30 29 29 30 30 30 30 30 31 30 31 32 32 33 33 34 34 33 33 33 33 34 34 34 35 34 35 36 36 37
43 42 41 40 38 37 36 35 34 34 33 32 32 31 31 31 31 31 31 31 31 31 31 32 32 33 34 34 34 34 33 33 33 34 34 35 35 35 35 36 36 37 38
45 44 43 42 40 39 38 37 36 35 35 34 33 32 32 32 32 32 32 32 32 32 32 32 33 34 34 34 34 34 33 34 34 34 35 35 36 36 36 37 37 38 39
46 45 44 43 41 40 39 38 37 36 36 35 34 33 33 33 33 33 33 33 33 33 33 33 34 34 34 35 34 34 34 34 35 35 36 36 36 37 37 38 39 39 39
48 46 45 44 43 41 40 39 38 37 36 35 35 34 34 34 34 34 34 34 33 33 34 34 35 35 35 35 34 34 35 35 36 36 37 37 37 38 38 39 40 40 41
48 47 46 45 44 42 41 40 39 38 37 36 36 35 35 35 34 34 34 34 34 34 35 35 35 35 35 35 35 35 35 36 36 37 37 37 38 39 39 40 41 42 43
48 48 46 45 44 43 42 41 40 39 38 37 37 36 36 35 35 35 35 34 35 35 36 35 35 35 35 36 36 36 36 36 37 37 38 39 39 39 40 41 43 44 45
47 47 46 46 45 44 43 42 41 40 39 38 37 37 36 36 36 35 35 35 36 36 36 36 36 36 36 36 36 36 37 37 38 38 39 39 40 41 42 43 44 46 48
45 45 45 45 44 43 42 41 41 40 39 38 38 37 37 36 36 36 35 36 36 36 36 36 36 36 36 37 37 37 37 38 39 39 40 40 41 42 43 44 46 48 49
43 43 43 43 43 42 41 40 40 39 39 38 37 37 36 36 36 36 36 36 36 36 36 36 36 36 36 37 37 37 38 39 39 40 41 41 42 43 44 45 47 49 50
42 42 42 42 42 41 41 40 40 39 38 38 37 37 36 36 36 36 36 36 36 36 36 36 36 36 36 37 37 38 38 39 40 41 41 42 43 44 45 47 48 50 51
41 42 42 41 41 40 40 40 40 39 38 38 37 37 36 36 36 36 36 36 36 36 36 36 36 36 36 37 37 38 39 40 40 41 42 43 44 46 47 49 50 51 53
41 41 41 41 40 40 39 39 38 38 38 37 37 36 36 36 36 35 35 36 36 36 36 36 36 37 37 37 38 39 39 40 41 41 42 44 45 47 48 49 51 52 53
41 41 41 41 40 40 39 38 37 37 37 37 36 36 36 36 36 36 35 36 36 36 36 36 37 37 38 38 38 39 40 40 41 42 43 45 46 47 48 49 51 52 53
42 42 42 42 41 40 39 38 37 37 37 36 36 36 36 36 36 36 36 36 36 36 36 36 37 37 37 38 38 39 40 41 42 43 44 45 46 47 49 50 51 52 54
43 43 42 42 41 40 39 38 38 37 37 37 36 36 36 36 36 36 36 36 36 36 36 36 36 37 37 38 39 40 41 42 42 43 44 45 47 48 49 50 51 53 54
44 44 43 43 41 40 40 39 38 37 37 36 36 36 36 36 36 36 36 35 35 35 36 36 37 37 38 39 40 41 42 42 42 43 45 46 47 48 49 50 52 53 54
45 45 44 43 41 41 40 39 38 37 37 37 36 36 36 36 36 35 35 35 35 36 36 36 37 38 39 39 40 41 42 42 43 44 45 46 47 49 50 51 52 53 55
44 44 43 42 42 41 40 39 39 38 38 37 37 36 36 35 35 35 35 35 35 36 36 36 37 38 39 40 40 41 41 42 43 44 45 46 48 49 50 52 53 54 55
43 43 43 42 42 41 40 39 39 38 38 38 37 36 36 35 35 35 35 35 36 36 36 37 37 38 39 40 41 41 42 43 43 44 45 46 48 49 51 53 54 54 55
43 43 43 42 41 41 40 39 39 38 38 38 37 36 36 35 35 35 35 35 36 36 36 37 38 39 39 40 41 42 42 43 43 44 45 47 49 50 52 53 53 54 56
42 42 41 41 41 40 39 38 38 38 38 37 37 36 36 35 35 35 35 36 36 36 37 38 38 39 40 40 41 41 42 43 44 45 46 48 49 51 52 52 54 55 56
41 41 40 40 40 39 39 38 38 38 37 37 36 35 35 35 35 35 35 36 36 36 37 38 39 39 40 40 41 42 43 43 44 45 46 48 50 51 52 53 54 55 56
Wind_Direction
224 225 227 230 231 234 237 239 243 247 251 255 259 264 268 272 275 279 282 284 288 291 294 295 296 297 298 299 301 303 304 304 305 306 306 306 307 307 307 307 308 308 308
226 227 229 231 233 235 238 240 244 247 251 255 259 264 268 271 275 279 281 284 287 290 292 293 294 296 297 299 301 302 303 304 305 305 306 306 306 307 306 307 307 307 307
227 229 230 232 234 236 239 241 245 248 252 256 260 264 267 270 274 277 280 283 286 289 290 292 293 295 297 299 300 301 302 303 304 304 305 306 306 306 306 306 307 307 307
228 230 232 233 235 237 240 242 246 249 253 256 260 263 266 269 272 276 279 282 285 287 290 291 293 294 296 297 299 300 301 302 303 303 304 304 305 305 304 305 306 305 305
229 231 233 235 236 238 241 244 247 251 254 257 260 262 265 269 272 275 278 281 284 286 289 290 292 293 295 296 297 298 300 301 301 302 303 303 304 304 304 305 305 305 305
231 232 234 236 238 240 243 246 249 251 254 256 259 262 265 268 271 274 277 280 282 285 287 289 291 292 294 295 296 297 298 300 300 300 301 302 303 303 303 304 305 305 304
233 234 235 237 240 242 244 246 249 252 254 256 258 261 264 267 270 273 276 278 281 283 286 288 290 292 293 295 296 296 297 298 299 299 300 301 301 302 303 304 304 304 304
234 235 237 239 240 242 244 247 249 251 253 255 257 260 263 265 268 271 275 278 280 282 285 287 289 290 292 294 295 295 296 297 298 298 299 300 300 301 302 303 304 304 304
236 237 239 239 241 243 245 246 248 250 252 254 256 259 262 264 267 270 274 277 279 281 284 287 288 289 291 292 293 294 295 296 297 297 298 299 300 300 301 302 303 304 304
235 237 239 240 242 243 244 245 247 249 251 254 257 259 262 264 266 269 273 275 278 280 283 285 287 288 289 290 292 293 294 295 296 297 298 298 299 300 301 302 303 303 304
234 236 238 240 242 243 244 244 246 248 251 254 257 259 262 264 267 269 272 275 277 279 282 284 286 287 288 289 291 292 293 294 295 296 297 297 298 299 301 301 302 303 304
233 234 236 239 241 243 243 244 246 248 250 253 255 258 261 263 266 268 271 274 276 279 281 283 284 286 287 288 290 291 293 294 294 295 296 297 298 299 300 301 302 303 303
231 233 235 238 240 241 243 244 245 247 249 252 255 257 260 263 265 268 271 273 276 278 280 282 283 285 287 288 290 292 293 293 294 295 296 297 299 300 300 302 303 303 303
229 230 233 235 237 239 241 243 245 247 249 251 254 257 260 262 265 267 270 273 275 277 279 281 282 284 287 288 290 292 293 293 294 295 296 298 299 300 301 302 303 303 303
228 229 231 233 236 238 240 242 244 247 249 252 255 257 260 262 265 267 270 273 275 277 278 280 282 284 286 288 290 292 293 293 294 295 296 298 299 300 301 302 303 303 303
228 229 230 232 234 237 239 242 244 246 249 252 255 258 260 263 265 267 270 272 274 276 278 280 283 285 286 288 290 291 292 293 294 295 296 298 299 301 301 302 303 304 305
226 228 230 231 232 235 238 240 243 245 248 251 254 257 260 263 265 267 269 271 274 276 278 281 283 285 286 288 290 292 293 294 295 295 296 298 300 301 301 302 303 305 306
226 227 229 231 232 235 237 239 242 245 247 250 254 257 259 262 265 268 269 271 274 276 278 281 283 284 286 288 290 292 293 294 296 296 297 299 299 300 301 303 304 305 306
228 229 229 231 234 235 237 240 243 245 247 251 254 257 260 262 265 267 270 272 274 276 278 280 283 285 286 288 290 292 294 296 297 297 298 299 300 301 302 304 305 305 306
229 230 231 232 234 236 238 241 243 245 248 251 254 257 261 263 265 267 269 272 274 276 279 281 283 285 287 289 291 293 295 296 297 298 299 300 301 302 303 304 306 307 308
229 230 231 233 235 236 238 241 243 246 248 251 254 258 261 263 265 267 269 272 275 277 280 282 284 286 288 290 292 294 295 296 297 299 300 301 302 303 304 306 307 308 308
228 230 232 232 234 237 239 241 244 246 249 251 255 258 260 262 264 266 269 272 275 278 280 283 285 286 288 291 293 294 296 297 298 300 301 302 303 304 305 306 307 308 309
228 229 231 233 235 237 239 241 244 247 249 252 255 257 260 262 264 267 270 272 275 278 281 283 285 287 289 291 293 295 296 298 299 301 302 303 304 305 306 307 308 309 310
229 229 231 233 235 237 239 241 244 247 249 252 255 257 260 262 264 267 270 273 276 278 281 284 286 288 290 292 293 295 297 298 300 301 302 304 305 307 308 309 310 310 311
230 230 231 233 235 237 239 242 244 247 249 252 254 256 259 261 265 268 271 274 277 280 282 285 287 289 290 292 294 296 297 299 300 301 303 304 306 308 309 310 310 311 312
229 230 232 233 235 237 240 242 244 246 249 251 253 256 259 262 265 268 272 275 278 280 283 285 288 289 290 292 294 296 298 299 301 302 304 305 307 309 310 310 311 312 313
Height
5791 5795 5798 5801 5805 5808 5811 5813 5815 5816 5818 5819 5820 5821 5821 5821 5820 5820 5819 5818 5817 5815 5814 5812 5810 5807 5805 5803 5800 5797 5794 5791 5788 5785 5782 5778 5775 5771 5768 5764 5761 5757 5753
5783 5788 5791 5795 5798 5801 5804 5806 5808 5810 5812 5813 5814 5814 5814 5815 5814 5814 5813 5812 5810 5809 5807 5806 5804 5801 5799 5797 5794 5791 5788 5785 5782 5779 5776 5773 5770 5765 5762 5758 5754 5750 5747
5776 5780 5784 5788 5791 5794 5797 5800 5802 5804 5805 5806 5807 5808 5808 5808 5808 5807 5806 5805 5804 5803 5801 5799 5797 5795 5793 5790 5787 5785 5782 5779 5776 5773 5770 5766 5763 5760 5756 5752 5748 5744 5740
5768 5772 5776 5781 5784 5787 5790 5792 5794 5796 5798 5799 5800 5801 5802 5802 5801 5800 5800 5799 5797 5796 5794 5793 5791 5789 5786 5784 5781 5778 5775 5772 5769 5766 5763 5760 5756 5753 5749 5746 5741 5737 5733
5760 5764 5768 5772 5776 5779 5782 5784 5787 5789 5790 5792 5793 5794 5794 5794 5794 5793 5793 5792 5791 5789 5788 5786 5784 5782 5779 5777 5774 5771 5768 5766 5763 5760 5756 5753 5749 5745 5742 5739 5735 5730 5725
5751 5755 5759 5763 5767 5771 5774 5776 5779 5781 5782 5784 5785 5786 5787 5787 5786 5786 5785 5785 5784 5782 5781 5779 5777 5775 5772 5770 5767 5764 5762 5759 5756 5753 5749 5746 5742 5738 5735 5731 5727 5723 5718
5741 5746 5750 5755 5759 5762 5766 5768 5771 5773 5774 5776 5777 5778 5779 5779 5779 5778 5778 5777 5776 5775 5774 5772 5770 5768 5765 5763 5760 5757 5755 5752 5748 5745 5742 5738 5735 5731 5727 5723 5719 5715 5710
5731 5736 5741 5745 5750 5753 5757 5760 5762 5764 5766 5768 5769 5770 5770 5771 5771 5771 5770 5770 5769 5767 5766 5764 5762 5760 5758 5755 5753 5750 5747 5744 5741 5738 5734 5731 5727 5723 5719 5715 5710 5706 5702
5721 5726 5731 5736 5740 5744 5747 5751 5753 5755 5757 5759 5760 5761 5762 5763 5763 5763 5762 5762 5761 5760 5758 5756 5755 5752 5750 5748 5745 5742 5739 5736 5733 5730 5727 5723 5719 5715 5711 5706 5702 5697 5693
5710 5715 5721 5725 5730 5734 5737 5741 5744 5746 5748 5750 5751 5753 5754 5754 5754 5754 5754 5754 5753 5751 5750 5748 5747 5744 5742 5740 5737 5735 5732 5729 5725 5722 5718 5714 5710 5706 5702 5697 5693 5687 5683
5699 5705 5710 5715 5719 5723 5727 5731 5734 5737 5739 5741 5743 5744 5745 5746 5746 5746 5746 5745 5744 5743 5742 5740 5739 5736 5734 5732 5729 5727 5723 5720 5717 5713 5710 5706 5702 5698 5693 5688 5683 5678 5672
5688 5694 5699 5704 5709 5713 5717 5721 5724 5727 5730 5732 5734 5735 5736 5737 5737 5738 5738 5737 5736 5735 5734 5732 5730 5728 5726 5723 5721 5718 5715 5712 5708 5705 5701 5697 5693 5688 5684 5679 5673 5668 5662
5678 5684 5689 5694 5699 5703 5707 5711 5714 5717 5720 5722 5724 5726 5727 5728 5729 5729 5729 5728 5727 5726 5725 5723 5722 5719 5717 5715 5712 5710 5706 5703 5699 5696 5692 5688 5683 5679 5674 5668 5663 5657 5651
5669 5674 5679 5684 5688 5693 5697 5701 5705 5708 5710 5713 5715 5717 5718 5719 5720 5720 5720 5719 5718 5717 5716 5715 5713 5711 5709 5706 5704 5701 5697 5694 5690 5686 5682 5678 5673 5669 5663 5658 5652 5646 5640
5659 5664 5669 5674 5679 5683 5687 5691 5695 5698 5701 5704 5706 5708 5709 5710 5711 5711 5710 5710 5709 5708 5707 5706 5704 5702 5700 5697 5694 5691 5688 5684 5680 5676 5672 5668 5663 5658 5653 5647 5641 5635 5628
5649 5654 5659 5664 5669 5673 5678 5682 5686 5689 5692 5694 5696 5698 5699 5700 5701 5701 5701 5701 5700 5699 5698 5697 5695 5693 5691 5688 5685 5682 5678 5674 5671 5667 5662 5658 5653 5648 5642 5636 5630 5623 5616
5639 5644 5650 5654 5659 5663 5668 5672 5676 5679 5682 5684 5687 5688 5690 5691 5692 5692 5692 5692 5691 5690 5689 5688 5686 5684 5681 5679 5676 5672 5669 5665 5661 5657 5652 5648 5642 5637 5631 5625 5618 5612 5604
5629 5634 5639 5644 5649 5654 5658 5662 5666 5669 5672 5675 5677 5679 5680 5681 5682 5682 5683 5682 5682 5681 5680 5678 5676 5674 5672 5669 5666 5662 5659 5655 5651 5646 5642 5637 5631 5626 5620 5614 5607 5600 5593
5619 5624 5630 5635 5640 5645 5649 5653 5657 5660 5663 5666 5668 5669 5671 5672 5672 5673 5673 5673 5672 5672 5670 5669 5667 5665 5662 5659 5656 5652 5648 5644 5640 5636 5631 5626 5621 5615 5609 5603 5596 5589 5581
5609 5615 5620 5626 5631 5636 5640 5644 5648 5651 5654 5656 5658 5660 5661 5662 5663 5663 5663 5663 5663 5662 5661 5659 5657 5655 5652 5649 5645 5642 5638 5634 5630 5625 5620 5615 5610 5603 5597 5591 5584 5577 5569
5600 5605 5611 5617 5622 5626 5631 5635 5638 5642 5644 5646 5649 5650 5652 5653 5653 5654 5654 5654 5653 5652 5651 5649 5647 5645 5642 5639 5635 5631 5628 5624 5619 5615 5610 5604 5598 5592 5585 5579 5572 5565 5557
5591 5596 5602 5607 5612 5617 5621 5625 5629 5632 5634 5637 5639 5641 5642 5643 5644 5644 5644 5644 5643 5642 5641 5639 5637 5634 5632 5628 5625 5621 5617 5613 5609 5604 5599 5593 5587 5581 5574 5567 5560 5552 5545
5581 5587 5592 5597 5602 5607 5612 5616 5619 5622 5625 5627 5629 5631 5632 5633 5634 5634 5634 5634 5633 5632 5631 5629 5627 5624 5621 5618 5614 5611 5607 5602 5598 5593 5587 5582 5576 5569 5562 5555 5548 5540 5532
5571 5576 5582 5587 5592 5597 5602 5606 5609 5612 5615 5617 5619 5621 5623 5624 5624 5625 5625 5624 5623 5622 5620 5619 5616 5614 5611 5608 5604 5600 5596 5591 5587 5582 5576 5571 5564 5558 5551 5543 5536 5528 5520
5561 5567 5572 5578 5583 5587 5592 5596 5599 5602 5605 5607 5610 5611 5613 5614 5615 5615 5615 5614 5614 5612 5611 5609 5606 5603 5601 5597 5594 5590 5585 5581 5576 5571 5566 5560 5553 5546 5539 5532 5524 5516 5508
5551 5557 5562 5568 5573 5578 5582 5586 5589 5593 5595 5598 5600 5602 5603 5604 5605 5605 5605 5604 5603 5602 5600 5598 5596 5593 5590 5586 5583 5579 5575 5570 5565 5560 5554 5548 5542 5535 5528 5520 5512 5504 5496